www.pogodaiklimat.ru

Погода и климат >> Архив погоды >> Россия >> Адыгея >> Гузерипль


ПОГОДА в Гузерипле

  • Прогноз погоды в Гузерипле
  • Монитор погоды в Гузерипле

АРХИВ ПОГОДЫ в Гузерипле

Время (UTC), дата Ветер
(напр.,м/с)
 
Видим.   Явления Облачность Т
(С)
Тd
(С)
f
(%)
Тe
(С)
Тes
(С)
Комфортность P
(гПа)
Po
(гПа)
Тmin
(С)
Tmax
(С)
R
(мм)
R24
(мм)
S
(см)
09 11.02 В 2 20 км 1/0
[Ac cast]
+9.6 +1.8 58 +8 +14 1018.9 939.2
12 11.02 ЮВ 2 20 км 3/3 1500 м
[Sc]
+11.3 -3.2 36 +11 +13 1017.5 938.4
15 11.02 СЗ 1 20 км 3/3 1500 м
[Sc]
+6.2 +1.9 74 +5 +5 1019.6 939.0 +11.9
18 11.02 З 1 20 км ясно +0.4 +0.4 100 -2 -2 1022.3 939.8
21 11.02 штиль 0 20 км ясно -1.5 -1.5 100 -3 -3 1022.7 939.6
00 12.02 штиль 0 20 км ясно -2.6 -2.6 100 -4 -4 1022.4 939.0
03 12.02 штиль 0 20 км ясно -3.2 -3.2 100 -5 -5 1022.4 938.8 -3.2
06 12.02 штиль 0 20 км 10/0
[Cc]
-1.3 -1.6 98 -3 -1 1022.0 939.0 -3.5
09 12.02 штиль 0 20 км 10/0
[Cc]
+8.2 -0.4 55 +8 +15 1016.5 936.6
12 12.02 Ю 1 20 км 10/0
[Cc]
+11.6 -1.3 41 +12 +15 1013.7 934.9
15 12.02 штиль 0 20 км 5/0
[Cc]
+5.2 +0.4 71 +4 +4 1016.7 936.0 +12.9
18 12.02 штиль 0 20 км 3/0
[Cc]
+1.2 +0.4 94 -0 -0 1020.2 938.1
21 12.02 штиль 0 20 км ясно -1.3 -1.3 100 -3 -3 1022.4 939.4
00 13.02 ЮЗ 1 20 км ясно -2.2 -2.2 100 -5 -5 1023.2 939.9
03 13.02 штиль 0 20 км ясно -2.5 -2.5 100 -4 -4 1024.0 940.5 -2.7
06 13.02 З 1 20 км 10/0
[Cc]
-1.0 -1.0 100 -3 -1 1024.6 941.5
09 13.02 штиль 0 20 км 10/0
[Cc]
+7.6 +1.6 66 +7 +14 1021.3 940.9
12 13.02 ЮЗ 1 20 км 10/0
[Ci]
+13.2 -1.3 37 +14 +17 1018.6 939.9
15 13.02 З 1 20 км 10/0
[Ci]
+6.1 +2.9 80 +5 +5 1021.8 941.0 +13.7
18 13.02 З 1 20 км 10/0
[Ci]
+2.1 +1.6 96 0 0 1024.4 942.2
21 13.02 штиль 0 20 км 4/0
[Ci]
-0.3 -0.3 100 -2 -2 1025.6 942.6
00 14.02 З 1 20 км 8/0
[Ci]
+0.5 +0.3 99 -2 -2 1025.1 942.4
03 14.02 штиль 0 20 км 8/0
[Ci]
+1.3 +0.9 97 0 0 1024.0 941.6 -0.5
06 14.02 штиль 0 20 км 10/0
[Cs]
+2.4 +1.8 96 +1 +3 1024.2 942.1
09 14.02 Ю 1 20 км 10/0
[Cs]
+4.5 +1.0 78 +3 +10 1021.9 940.6
12 14.02 В 1 20 км 10/0
[Cs]
+4.2 +0.7 78 +3 +6 1020.9 939.6
15 14.02 В 1 20 км 10/10 600 м
[Sc diur, vesp]
+3.0 0.0 81 +2 +2 1020.6 939.0 +4.8
18 14.02 СВ 1 20 км 10/10 600 м
[Sc diur, vesp]
+2.4 +0.1 85 +1 +1 1020.6 938.8
21 14.02 штиль 0 н/о н/о +2.1 +0.3 88 +1 +1 1019.9 938.1
00 15.02 штиль 0 20 км 10/10 600 м
[Sc diur, vesp]
+1.6 +0.9 95 0 0 1020.3 938.3
03 15.02 штиль 0 20 км 10/10 600 м
[Sc diur, vesp]
+1.4 +0.6 94 0 0 1020.4 938.4 +1.4
06 15.02 штиль 0 20 км 10/10 600 м
[Sc diur, vesp]
+1.4 -0.2 89 0 0 1021.2 939.1 +1.0
09 15.02 В 2 20 км 10/10 1000 м
[Sc]
+2.6 -1.4 75 -0 -0 1021.4 939.6
12 15.02 СВ 2 20 км 10/10 1000 м
[Sc]
+3.4 -1.8 69 +1 +1 1020.1 938.6
15 15.02 З 1 20 км 10/10 1000 м
[Sc]
+2.0 -2.5 72 +1 +1 1021.6 939.6 +3.7
18 15.02 штиль 0 20 км 10/10 1000 м
[Sc]
+0.8 -2.3 80 -0 -0 1022.3 939.9
21 15.02 штиль 0 20 км ясно -2.6 -2.7 99 -4 -4 1022.8 939.4
00 16.02 ЮЗ 1 20 км ясно -3.7 -3.7 100 -6 -6 1023.3 939.5
03 16.02 штиль 0 20 км ясно -4.6 -4.6 100 -6 -6 1023.7 939.5 -4.6
06 16.02 штиль 0 20 км 6/0
[Cc]
-2.7 -2.9 99 -4 -1 1024.2 940.6
09 16.02 В 1 20 км 9/0
[Cs]
+6.8 -2.6 51 +6 +13 1019.5 939.0
12 16.02 Ю 2 20 км 10/10 1500 м
[Sc]
+9.8 -4.9 35 +9 +9 1017.3 937.7
15 16.02 штиль 0 20 км 10/10 1500 м
[Sc]
+6.4 -1.9 55 +6 +6 1019.4 938.7 +10.3
18 16.02 штиль 0 20 км 10/10 1500 м
[Sc]
+4.5 -2.3 61 +4 +4 1020.5 939.3
21 16.02 З 1 20 км 10/10 1500 м
[Sc]
+4.5 -4.8 51 +4 +4 1020.7 939.5
00 17.02 штиль 0 20 км 5/5 1500 м
[Sc]
-1.5 -3.5 86 -3 -3 1022.9 939.7
03 17.02 штиль 0 20 км 9/9 1500 м
[Sc]
-1.9 -3.2 91 -3 -3 1023.0 939.7 -2.3
06 17.02 штиль 0 20 км ясно +0.7 -1.8 83 -0 +3 1023.0 940.5
09 17.02 С 2 20 км 3/0
[Ci]
+9.2 -3.6 40 +8 +15 1019.4 939.5
12 17.02 В 3-11
{11}
20 км 1/0
[Ci]
+8.8 -3.3 42 +7 +10 1019.1 939.2
15 17.02 ЮЗ 1
{11}
20 км 10/3 1500 м
[Sc Cs]
+6.1 -3.4 51 +6 +6 1020.1 939.3 +9.8
18 17.02 В 2
{11}
20 км 8/0
[Ci]
+5.7 -3.9 50 +4 +4 1020.1 939.2
21 17.02 СВ 2 20 км 3/0
[Ci]
+5.1 -3.8 53 +3 +3 1018.9 938.0
00 18.02 СВ 1
{12}
20 км 3/0
[Ci]
+5.2 -3.3 54 +5 +5 1017.0 936.2
03 18.02 ЮВ 1 20 км 5/0
[Ci]
+5.6 -3.5 52 +5 +5 1015.2 934.7 +4.0
06 18.02 В 3-10
{13}
20 км 6/3 1500 м
[Sc Cs]
+5.8 -4.0 49 +3 +4 1015.0 934.6

 

Местоположение метеостанции Гузерипль (Адыгея, Россия): широта 44.00 долгота 40.13 высота над уровнем моря 677 м.

В архиве по умолчанию представлена погода в Гузерипле за последнюю неделю. Архивные данные за месяц целиком и за предыдущие месяцы, начиная с января 2011 года, Вы можете получить, выбрав интересующий диапазон дат из раскрывающегося списка и нажав кнопку "Ввод!".


*Определитесь, кто Вы:
робот инопланетянин человек

Внимание! Время в таблицах - всемирное. Для получения местного времени необходимо прибавить поправку, которая равна 3 ч.

Смотрите также архив погоды в соседних городах и на ближайших метеорологических станциях:

Погода в Красной Поляне (Краснодарский край, Россия) (36 км)
Погода на Кордоне Лаура (Краснодарский край, Россия) (36 км)
Погода в Горная Карусель 1500 (Краснодарский край, Россия) (41 км)
Погода в Горная Карусель 1000 (Краснодарский край, Россия) (41 км)
Погода в Кепше (Краснодарский край, Россия) (43 км)
Погода в Солох Ауле (Краснодарский край, Россия) (46 км)
Погода в Шунтуке (Адыгея, Россия) (52 км)
Погода в Кичмае (Краснодарский край, Россия) (53 км)
Погода в Псебае (Краснодарский край, Россия) (54 км)
Погода в Сочи (Краснодарский край, Россия) (55 км)

Пояснения к столбцам:

Ветер - указаны скорость ветра в м/с - средняя за 10 мин, порывы в срок и между сроками (в фигурных скобках) и направление, откуда дует ветер: С - северный, СВ - северо-восточный, В - восточный, ЮВ - юго-восточный, Ю - южный, ЮЗ - юго-западный, З - западный, СЗ - северо-западный.
Видимость - горизонтальная дальность видимости в метрах или километрах. При видимости от 1 до 10 км при отсутствии осадков обычно наблюдается дымка, при ухудшении видимости до 1 км и менее - туман. В сухую погоду видимость может ухудшаться дымом, пылью или мглою.
Явления - указаны атмосферные явления, наблюдавшиеся в срок или в последний час перед сроком; фигурными скобками обозначены явления, наблюдавшиеся между сроками (за 1-3 часа до срока); квадратными скобками обозначены град или гололедные отложения с указанием их диаметра в мм.
Облачность - указаны через наклонную черту общая и нижняя облачность в баллах и высота нижней границы облаков в метрах; квадратными скобками обозначены формы облаков: Ci - перистые, Cs - перисто-слоистые, Cc - перисто-кучевые, Ac - высококучевые, As - высокослоистые, Sc - слоисто-кучевые, Ns - слоисто-дождевые, Cu - кучевые, Cb - кучево-дождевые. Подробнее классификацию облаков см. в Атласе облаков (PDF).
T - Температура воздуха - температура, измеренная на высоте 2 м над землей.
Td - Температура точки росы - температура, при понижении до которой содержащийся в воздухе водяной пар достигнет насыщения.
f - Относительная влажность воздуха - влажноcть воздуха, измеренная на высоте 2 м над землей.
Te - Эффективная температура - температура, которую ощущает одетый по сезону человек в тени. Характеристика душности погоды. При расчете учитывается влияние влажности воздуха и скорости ветра на теплоощущения человека.
Tes - Эффективная температура на солнце - температура, которую ощущает человек, с поправкой на солнечный нагрев. Характеристика знойности погоды. Зависит от высоты солнца над горизонтом, облачности и скорости ветра. Ночью, в пасмурную погоду, а также при ветре 12 м/с и более поправка равна нулю.
P - Атмосферное давление - приведенное к уровню моря атмосферное давление.
Po - Атмосферное давление - измеренное на уровне метеостанции атмосферное давление.
Tmin - Минимальная температура - минимум температуры воздуха на высоте 2 м над землей.
Tmax - Максимальная температура - максимум температуры воздуха на высоте 2 м над землей.
R - Количество осадков - Количество выпавших осадков за период времени, мм. При наведении курсора мыши на число - период времени, за который выпало указанное количество осадков.
R24 - Количество осадков - Количество выпавших осадков за 24 часа, мм.
S - Снежный покров - Высота снежного покрова, см. При наведении курсора мыши на число - состояние снежного покрова и степень покрытия местности в баллах.